Regional Weather Roundup
Issued by NWS

Home | Current Version | Previous Version | Text Only | Print | Product List | Glossary Off
Versions: 1 2 3 4 5 6 7 8 9 10 11 12 13 14 15 16 17 18 19 20 21 22 23 24 25 26 27 28 29 30 31 32 33 34 35 36 37 38 39 40 41 42 43 44 45 46 47 48 49 50

000
ASUS43 KDTX 240710
RWRMI
MICHIGAN HOURLY REGIONAL WEATHER ROUNDUP
NATIONAL WEATHER SERVICE DETROIT/PONTIAC MI
300 AM EDT THU APR 24 2014

NOTE: "FAIR" INDICATES FEW OR NO CLOUDS BELOW 12,000 FEET WITH NO
SIGNIFICANT WEATHER AND/OR OBSTRUCTION TO VISIBILITY.

MIZ047>049-052>055-059>063-066>070-074>076-081>083-240800-
SOUTHEAST LOWER MICHIGAN

CITY           SKY/WX    TMP DP  RH WIND       PRES   REMARKS
ADRIAN         CLOUDY    45  31  58 SE5       30.10F
ALMA           MOCLDY    36  25  64 NE7       30.12R
ANN ARBOR      CLOUDY    43  28  55 E5        30.11S
BAD AXE        CLEAR     27  23  85 CALM      30.13F
DETROIT CITY   CLOUDY    41  17  38 NE5       30.13F
DETROIT        CLOUDY    42  24  49 CALM      30.13S
FLINT          MOCLDY    36  20  52 SE3       30.13R
GROSSE ILE     CLOUDY    43   7  22 E5        30.11F
HILLSDALE      CLOUDY    46  29  52 SE6       30.08S
HOWELL         CLOUDY    39  25  57 E6        30.11R

CITY           SKY/WX    TMP DP  RH WIND       PRES   REMARKS
JACKSON        CLOUDY    45  30  55 SE6       30.09S
LAMBERTVILLE   CLOUDY    46  28  49 CALM      30.11S
LANSING        CLOUDY    42  31  64 CALM      30.10S
LAPEER         NOT AVBL
MASON          CLOUDY    40  26  58 NE6       30.10R
MONROE         CLOUDY    45  34  65 E8        30.11R
MT. CLEMENS    MOCLDY    34  19  52 NW2       30.12F
PONTIAC        CLOUDY    38  15  39 CALM      30.11F
PORT HOPE        N/A     30  24  78 CALM      30.12R
PORT HURON     PTCLDY    28  27  93 CALM      30.13F
TRI CITIES     MOCLDY    38  24  57 E5        30.14R
YPSILANTI      CLOUDY    44  26  49 E6        30.13R
$$
MIZ043>046-050>051-056>058-064>065-071>073-077>080-240800-
SOUTHWEST LOWER MICHIGAN

CITY           SKY/WX    TMP DP  RH WIND       PRES   REMARKS
BATTLE CREEK   CLOUDY    48  29  47 E3        30.09R
BENTON HARBOR  CLOUDY    44  31  60 NE5       30.07R
BIG RAPIDS     MOCLDY    38  23  53 CALM      30.11S
COLDWATER      CLOUDY    47  25  42 SE7       30.07F
HOLLAND        CLOUDY    46  30  53 E6        30.10R
GRAND RAPIDS   CLOUDY    45  30  55 E5        30.09S
KALAMAZOO      CLOUDY    47  31  53 E5        30.08S
MARSHALL       CLOUDY    45  27  49 CALM      30.08S
MUSKEGON       CLOUDY    45  25  45 NE3       30.10S
$$
MIZ016>042-240800-
NORTHERN LOWER MICHIGAN

CITY           SKY/WX    TMP DP  RH WIND       PRES   REMARKS
ALPENA         CLEAR     30  25  81 W3        30.14S
BEAVER ISLAND  PTCLDY    30  26  83 CALM      30.14S
BELLAIRE       PTCLDY    29  26  88 N5        30.14R
CADILLAC       MOCLDY    34  20  58 CALM      30.10S
CHARLEVOIX     PTCLDY    30  23  75 CALM      30.17S
FRANKFORT      PTSUNNY   40  18  40 E6        30.11F
GAYLORD        CLEAR     29  22  75 CALM      30.12S
GRAYLING       CLEAR     28  22  78 CALM      30.13S
HARBOR SPRINGS PTCLDY    30  25  81 NE3       30.14S
HOUGHTON LAKE  CLEAR     31  26  82 CALM      30.13R
MANISTEE       MOCLDY    37  19  48 E5        30.12S
OSCODA         CLEAR     27  19  73 CALM      30.13S
PELLSTON       PTCLDY    26  22  84 CALM      30.15S
TRAVERSE CITY  MOCLDY    33  25  72 CALM      30.12S
$$
MIZ007>008-015-240800-
EASTERN UPPER MICHIGAN

CITY           SKY/WX    TMP DP  RH WIND       PRES   REMARKS
KINROSS        PTCLDY    32  27  80 W3        30.14R
MACKINAC ISLAN PTCLDY    29  24  82 W3        30.14S
NEWBERRY       MOCLDY    29  25  86 CALM      30.13S
S. S. MARIE    CLEAR     30  24  78 NW5       30.12F
$$
MIZ004>006-011>014-085-240800-
CENTRAL UPPER MICHIGAN

CITY           SKY/WX    TMP DP  RH WIND       PRES   REMARKS
MANISTIQUE     MOCLDY    27  25  91 MISG      30.13S
ESCANABA       CLOUDY    30  25  80 CALM      30.12S
MENOMINEE      CLOUDY    37  19  48 CALM      30.11R
SAWYER-GWINN   CLOUDY    34  22  59 SW3       30.10F
$$
MIZ001>003-009>011-084-240800-
WESTERN UPPER MICHIGAN

CITY           SKY/WX    TMP DP  RH WIND       PRES   REMARKS
IRON MOUNTAIN  CLOUDY    37  19  48 CALM      30.09S
HOUGHTON       CLOUDY    37  21  52 SE6       30.07F
COPPER HARBOR    N/A     39  21  48 SW9       30.09R
IRONWOOD       CLOUDY    45  25  45 S5        30.01F
$$

ABBREVIATIONS USED IN REMARKS
   TC - TEMPERATURE IN CELSIUS
  WCI - WIND CHILL INDEX
   HX - HEAT INDEX
  VSB - VISIBILITY




USA.gov is the U.S. government's official web portal to all federal, state and local government web resources and services.